Location: Unspecified
(0.0000°N, 0.0000°E)
Time: 05:16:20
(UTC+00:00)

deb Delta 104 - Pass Details

Date: 14 March 2026
Orbit: 1403 x 1485 km, 102.0° (Epoch: 15 April)

Event Time Altitude Azimuth Distance (km) Brightness Sun altitude
Rises 05:20:41 0° 39° (NE) 4,561 ? -12.1°
Reaches altitude 10° 05:23:59 10° 50° (NE) 3,573 ? -11.3°
Maximum altitude 05:30:51 29° 107° (ESE) 2,389 ? -9.6°
Drops below altitude 10° 05:37:37 10° 163° (SSE) 3,531 ? -7.9°
Sets 05:40:49 0° 173° (S) 4,499 ? -7.1°
